GW0614 Weather Reports


Display with metric or nautical units.
time (UTC)temp
F
wind
direction
speed
MPH
gust
MPH
rain 1hr
in
rain 24hr
in
rain mn
in
humidity
%
barometer
mb
20260507003618 49 9 0.0 0.0 0.07 0.55 0.55 99 1012.5
20260507003113 49 9 0.0 0.0 0.07 0.55 0.55 99 1012.7
20260507002610 49 17 0.0 0.0 0.00 0.54 0.54 99 1012.4
20260507002105 49 8 1.0 1.0 0.00 0.54 0.54 99 1012.4
20260507001603 49 2 0.0 0.0 0.05 0.54 0.54 99 1012.6
20260507001100 49 356 1.0 1.0 0.05 0.54 0.54 99 1012.3
20260507000556 49 7 1.0 1.0 0.00 0.53 0.53 99 1012.1
20260507000052 49 45 0.0 0.0 0.00 0.53 0.53 99 1012.1
20260506235549 49 332 1.0 2.0 0.00 0.53 0.53 99 1011.7
20260506235044 49 346 0.0 0.0 0.00 0.53 0.53 99 1011.8
20260506234542 50 1 1.0 2.0 0.07 0.53 0.53 99 1011.8
20260506234039 50 304 3.0 3.0 0.31 0.53 0.53 99 1011.6
20260506233536 50 344 1.0 1.0 0.52 0.52 0.52 99 1011.6
20260506233033 51 30 0.0 0.0 0.42 0.48 0.48 99 1011.3
20260506232529 51 1 0.0 0.0 0.42 0.43 0.43 99 1011.5
20260506232024 51 353 1.0 2.0 0.40 0.41 0.41 99 1011.2
20260506231522 52 344 0.0 0.0 0.31 0.36 0.36 99 1011.0
20260506231020 52 48 2.0 2.0 0.26 0.34 0.34 99 1010.9
20260506230516 53 36 1.0 1.0 0.24 0.31 0.31 99 1010.7
20260506230014 53 348 0.0 0.0 0.28 0.30 0.30 99 1010.6
20260506225511 53 352 1.0 1.0 0.19 0.27 0.27 99 1010.6
20260506225007 53 335 1.0 1.0 0.19 0.25 0.25 99 1010.5
20260506224504 54 102 1.0 1.0 0.35 0.24 0.24 99 1010.0
20260506224001 55 353 2.0 2.0 0.31 0.21 0.21 98 1009.8
20260506223456 57 345 2.0 3.0 0.05 0.17 0.17 95 1009.3
20260506222953 61 329 2.0 3.0 0.00 0.16 0.16 96 1009.4
20260506222450 61 59 0.0 0.0 0.00 0.16 0.16 98 1008.6
20260506221947 61 59 0.0 0.0 0.00 0.16 0.16 98 1008.6
20260506221444 61 60 0.0 0.0 0.00 0.16 0.16 98 1008.6
20260506220942 61 87 1.0 1.0 0.00 0.16 0.16 98 1008.7
20260506220437 61 81 0.0 0.0 0.00 0.16 0.16 98 1008.5
20260506215934 61 30 0.0 0.0 0.00 0.16 0.16 98 1008.4
20260506215430 61 42 1.0 1.0 0.00 0.16 0.16 98 1008.3
20260506214926 61 44 0.0 0.0 0.00 0.16 0.16 98 1008.5
20260506214423 61 75 1.0 1.0 0.00 0.16 0.16 98 1008.3
20260506213921 61 74 0.0 0.0 0.00 0.16 0.16 98 1008.4
20260506213418 61 118 2.0 2.0 0.00 0.16 0.16 98 1008.5
20260506212915 61 65 0.0 0.0 0.00 0.16 0.16 98 1008.6
20260506212411 61 46 0.0 0.0 0.00 0.16 0.16 98 1008.6
20260506211906 61 57 0.0 0.0 0.00 0.16 0.16 98 1008.5
20260506211403 61 225 2.0 2.0 0.00 0.16 0.16 98 1008.4
20260506210900 61 61 2.0 3.0 0.00 0.16 0.16 98 1008.3
20260506210356 61 231 1.0 3.0 0.00 0.16 0.16 97 1008.4
20260506205854 61 334 2.0 2.0 0.00 0.16 0.16 97 1008.1
20260506205349 61 56 4.0 6.0 0.00 0.16 0.16 97 1008.3
20260506204846 61 1 1.0 1.0 0.00 0.16 0.16 97 1008.4
20260506204344 61 59 0.0 0.0 0.00 0.16 0.16 97 1008.4
20260506203841 62 43 1.0 1.0 0.00 0.16 0.16 97 1008.3
20260506203338 62 29 0.0 1.0 0.00 0.16 0.16 97 1008.2
20260506202835 62 124 2.0 2.0 0.00 0.16 0.16 96 1008.4
20260506202332 62 45 1.0 1.0 0.00 0.16 0.16 95 1008.1
20260506201829 62 89 1.0 2.0 0.00 0.16 0.16 96 1008.3
20260506201326 62 76 0.0 1.0 0.00 0.16 0.16 97 1008.2
20260506200823 62 71 2.0 2.0 0.00 0.16 0.16 95 1008.7
20260506200319 62 88 1.0 1.0 0.00 0.16 0.16 97 1008.5
20260506195815 62 193 3.0 5.0 0.00 0.16 0.16 96 1008.5
20260506195312 61 144 1.0 1.0 0.00 0.16 0.16 98 1008.5
20260506194809 61 205 4.0 6.0 0.00 0.16 0.16 97 1008.7
20260506194306 61 43 1.0 1.0 0.00 0.16 0.16 98 1008.7
20260506193804 61 43 1.0 2.0 0.00 0.16 0.16 97 1008.9
20260506193300 61 119 1.0 2.0 0.00 0.16 0.16 97 1008.8
20260506192756 61 134 3.0 3.0 0.00 0.16 0.16 98 1008.9
20260506192253 61 37 1.0 1.0 0.00 0.16 0.16 98 1008.9
20260506191750 61 79 1.0 1.0 0.00 0.16 0.16 98 1009.0
20260506191247 61 84 1.0 2.0 0.00 0.16 0.16 98 1008.9
20260506190744 61 65 1.0 2.0 0.00 0.16 0.16 98 1008.8
20260506190240 61 22 2.0 2.0 0.00 0.16 0.16 98 1009.1
20260506185737 61 61 1.0 1.0 0.00 0.16 0.16 99 1009.0
20260506185234 61 39 2.0 2.0 0.00 0.16 0.16 97 1009.0
20260506184731 62 78 1.0 2.0 0.00 0.16 0.16 98 1009.0
20260506184228 61 158 1.0 2.0 0.00 0.16 0.16 98 1009.2
20260506183725 61 175 2.0 2.0 0.00 0.16 0.16 99 1009.1
20260506183221 61 117 2.0 2.0 0.00 0.16 0.16 99 1009.1
20260506182718 61 55 0.0 0.0 0.07 0.16 0.16 99 1009.2
20260506182215 61 15 1.0 1.0 0.07 0.16 0.16 99 1009.3
20260506181713 61 66 1.0 1.0 0.00 0.15 0.15 99 1009.4
20260506181210 61 40 0.0 0.0 0.00 0.15 0.15 99 1009.4
20260506180707 61 209 2.0 3.0 0.00 0.15 0.15 99 1009.4
20260506180203 61 7 1.0 1.0 0.05 0.15 0.15 99 1009.4
20260506175659 61 25 0.0 0.0 0.05 0.15 0.15 99 1009.5
20260506175156 61 74 1.0 1.0 0.00 0.14 0.14 99 1009.6
20260506174649 61 75 0.0 0.0 0.00 0.14 0.14 99 1009.5
20260506174145 62 74 1.0 2.0 0.07 0.14 0.14 98 1009.3
20260506173643 61 53 1.0 1.0 0.07 0.14 0.14 98 1009.6
20260506173140 61 72 1.0 1.0 0.00 0.13 0.13 98 1009.3
20260506172637 61 57 0.0 1.0 0.00 0.13 0.13 99 1009.5
20260506172133 61 87 1.0 1.0 0.00 0.13 0.13 99 1009.5
20260506171631 62 180 1.0 2.0 0.00 0.13 0.13 99 1009.6
20260506171128 61 192 0.0 2.0 0.05 0.13 0.13 99 1009.4
20260506170620 62 72 1.0 1.0 0.05 0.13 0.13 99 1009.7
20260506170117 61 61 0.0 1.0 0.07 0.12 0.12 99 1009.7
20260506165615 61 57 0.0 0.0 0.12 0.12 0.12 99 1010.0
20260506165111 61 29 0.0 0.0 0.12 0.11 0.11 99 1010.2
20260506164608 61 157 1.0 2.0 0.12 0.10 0.10 99 1010.2
20260506164106 61 50 0.0 0.0 0.05 0.09 0.09 99 1010.2
20260506163601 61 32 0.0 0.0 0.07 0.08 0.08 99 1010.4
20260506163057 61 54 0.0 0.0 0.05 0.07 0.07 99 1010.5
20260506162554 61 76 1.0 1.0 0.05 0.07 0.07 99 1010.4
20260506162051 61 48 0.0 0.0 0.07 0.06 0.06 99 1010.6
20260506161549 61 54 1.0 2.0 0.07 0.06 0.06 99 1010.6
20260506161045 61 43 1.0 2.0 0.07 0.05 0.05 98 1010.7
20260506160543 61 88 0.0 0.0 0.12 0.05 0.05 98 1011.0
20260506160040 62 42 0.0 1.0 0.05 0.04 0.04 97 1011.1
20260506155539 62 36 0.0 0.0 0.07 0.03 0.03 97 1010.9
20260506153715 63 63 1.0 2.0 0.00 0.01 0.01 95 1010.7
20260506153213 63 66 0.0 0.0 0.00 0.01 0.01 93 1010.7
20260506152709 63 72 0.0 0.0 0.07 0.01 0.01 94 1010.7
20260506152207 63 114 2.0 3.0 0.07 0.01 0.01 92 1010.7
20260506151706 64 63 0.0 0.0 0.00 0.00 0.00 92 1010.9
20260506151202 64 1 0.0 1.0 0.00 0.00 0.00 90 1010.9
20260506150658 64 58 1.0 1.0 0.00 0.00 0.00 91 1011.0
20260506150155 64 52 0.0 0.0 0.00 0.00 0.00 90 1011.0
20260506145652 64 324 0.0 0.0 0.00 0.00 0.00 87 1011.1
20260506145149 64 71 0.0 0.0 0.00 0.00 0.00 87 1011.1
20260506144647 64 21 2.0 2.0 0.00 0.00 0.00 86 1011.0
20260506144143 64 54 0.0 0.0 0.00 0.00 0.00 87 1011.2
20260506143641 64 129 2.0 2.0 0.00 0.00 0.00 86 1011.3
20260506143139 65 37 1.0 1.0 0.00 0.00 0.00 83 1011.4
20260506142637 65 48 1.0 1.0 0.00 0.00 0.00 83 1011.3
20260506142135 65 56 0.0 0.0 0.00 0.00 0.00 84 1011.4
20260506141632 64 41 0.0 0.0 0.00 0.00 0.00 84 1011.4
20260506141130 65 41 0.0 0.0 0.00 0.00 0.00 83 1011.4
20260506140628 65 186 4.0 6.0 0.00 0.00 0.00 82 1011.3
20260506140125 65 97 3.0 3.0 0.00 0.00 0.00 82 1011.3
20260506135622 65 74 0.0 0.0 0.00 0.00 0.00 83 1011.1
20260506135118 65 141 2.0 3.0 0.00 0.00 0.00 82 1011.2
20260506134614 66 196 3.0 6.0 0.00 0.00 0.00 81 1011.0
20260506134110 66 208 3.0 3.0 0.00 0.00 0.00 81 1010.9
20260506133608 66 58 2.0 3.0 0.00 0.00 0.00 80 1011.0
20260506133104 65 193 2.0 2.0 0.00 0.00 0.00 81 1010.9
20260506132602 66 56 2.0 3.0 0.00 0.00 0.00 82 1011.0
20260506132059 66 31 0.0 0.0 0.00 0.00 0.00 81 1011.0
20260506131556 66 46 2.0 3.0 0.00 0.00 0.00 83 1010.9
20260506131052 65 159 5.0 8.0 0.00 0.00 0.00 80 1010.8
20260506130549 65 212 1.0 5.0 0.00 0.00 0.00 83 1010.9
20260506130047 64 211 3.0 6.0 0.00 0.00 0.00 83 1010.8
20260506125545 64 184 3.0 3.0 0.00 0.00 0.00 83 1010.7
20260506125042 64 176 3.0 3.0 0.00 0.00 0.00 83 1010.9
20260506124540 64 236 3.0 5.0 0.00 0.00 0.00 84 1011.1
20260506124038 63 199 5.0 6.0 0.00 0.00 0.00 84 1011.2
20260506123535 63 195 4.0 5.0 0.00 0.00 0.00 85 1011.4
20260506123033 63 202 4.0 5.0 0.00 0.00 0.00 84 1011.3
20260506122529 63 62 0.0 0.0 0.00 0.00 0.00 86 1011.4
20260506122028 63 205 5.0 10.0 0.00 0.00 0.00 84 1011.6
20260506121525 62 173 1.0 2.0 0.00 0.00 0.00 85 1011.6
20260506121021 62 67 2.0 3.0 0.00 0.00 0.00 86 1011.7
20260506120519 62 213 4.0 6.0 0.00 0.00 0.00 85 1011.7
20260506120017 62 201 1.0 1.0 0.00 0.00 0.00 86 1011.3
20260506115514 62 49 0.0 0.0 0.00 0.00 0.00 86 1011.4
20260506115013 62 61 0.0 0.0 0.00 0.00 0.00 85 1011.7
20260506114509 62 75 3.0 6.0 0.00 0.00 0.00 84 1011.5
20260506114008 62 173 3.0 6.0 0.00 0.00 0.00 85 1011.3
20260506113505 62 47 2.0 3.0 0.00 0.00 0.00 85 1011.3
20260506113002 62 15 1.0 2.0 0.00 0.00 0.00 84 1011.4
20260506112459 62 56 0.0 0.0 0.00 0.00 0.00 85 1011.1
20260506111956 62 39 0.0 1.0 0.00 0.00 0.00 85 1011.0
20260506111454 62 56 1.0 2.0 0.00 0.00 0.00 85 1011.2
20260506110951 62 113 3.0 3.0 0.00 0.00 0.00 85 1011.0
20260506110449 62 52 0.0 1.0 0.00 0.00 0.00 85 1010.8
20260506105945 62 39 0.0 0.0 0.00 0.00 0.00 84 1011.0
20260506105442 62 30 1.0 2.0 0.00 0.00 0.00 84 1010.9
20260506104939 61 200 5.0 8.0 0.00 0.00 0.00 84 1011.0
20260506104437 61 236 2.0 2.0 0.00 0.00 0.00 86 1010.9
20260506103935 61 70 0.0 1.0 0.00 0.00 0.00 86 1010.8
20260506103432 60 212 5.0 6.0 0.00 0.00 0.00 86 1010.9
20260506102929 60 50 1.0 2.0 0.00 0.00 0.00 88 1011.1
20260506102427 59 1 0.0 0.0 0.00 0.00 0.00 91 1011.0
20260506101924 57 77 0.0 0.0 0.00 0.00 0.00 94 1011.2
20260506101420 54 255 3.0 5.0 0.00 0.00 0.00 99 1010.8
20260506100918 52 358 0.0 0.0 0.00 0.00 0.00 99 1011.0
20260506100416 52 359 0.0 0.0 0.00 0.00 0.00 99 1011.0
20260506095914 52 332 0.0 0.0 0.00 0.00 0.00 99 1011.0
20260506095412 52 338 0.0 0.0 0.00 0.00 0.00 99 1010.9
20260506094908 52 2 0.0 0.0 0.00 0.00 0.00 99 1011.0
20260506094407 52 2 0.0 0.0 0.00 0.00 0.00 99 1010.9
20260506093904 52 25 0.0 0.0 0.00 0.00 0.00 99 1010.7
20260506093401 51 358 0.0 0.0 0.00 0.00 0.00 99 1010.8
20260506092859 51 358 0.0 0.0 0.00 0.00 0.00 99 1010.9
20260506092357 51 30 0.0 0.0 0.00 0.00 0.00 99 1010.8
20260506091853 51 236 0.0 0.0 0.00 0.00 0.00 99 1010.9
20260506091351 52 235 0.0 0.0 0.00 0.00 0.00 99 1010.9
20260506090848 51 235 0.0 0.0 0.00 0.00 0.00 99 1010.9
20260506090346 51 235 0.0 0.0 0.00 0.00 0.00 99 1010.8
20260506085842 51 236 0.0 0.0 0.00 0.00 0.00 99 1011.0
20260506085338 52 236 0.0 0.0 0.00 0.00 0.00 99 1011.2
20260506084835 52 236 0.0 0.0 0.00 0.00 0.00 99 1011.2
20260506084332 52 236 0.0 0.0 0.00 0.00 0.00 99 1011.3
20260506083829 53 236 0.0 0.0 0.00 0.00 0.00 99 1011.1
20260506083326 53 236 0.0 0.0 0.00 0.00 0.00 99 1011.2
20260506082824 53 236 0.0 0.0 0.00 0.00 0.00 99 1011.2
20260506082320 53 236 0.0 0.0 0.00 0.00 0.00 99 1011.0
20260506081816 53 236 0.0 0.0 0.00 0.00 0.00 99 1011.4
20260506081314 53 236 0.0 0.0 0.00 0.00 0.00 99 1011.1
20260506080812 53 236 0.0 0.0 0.00 0.00 0.00 99 1011.1
20260506080308 54 236 0.0 0.0 0.00 0.00 0.00 99 1011.1
20260506073252 55 236 0.0 0.0 0.00 0.00 0.00 97 1011.5
20260506072749 55 236 0.0 0.0 0.00 0.00 0.00 97 1011.5
20260506072246 55 236 0.0 0.0 0.00 0.00 0.00 97 1011.8
20260506071744 56 236 0.0 0.0 0.00 0.00 0.00 96 1011.8
20260506071242 56 236 0.0 0.0 0.00 0.00 0.00 96 1011.7
20260506070738 56 237 0.0 0.0 0.00 0.00 0.00 95 1011.6
20260506070235 57 237 0.0 0.0 0.00 0.00 0.00 95 1011.8
20260506062212 57 37 0.0 0.0 0.00 0.00 0.00 92 1012.1
20260506061708 58 37 0.0 0.0 0.00 0.00 0.00 92 1012.2
20260506061206 58 37 0.0 0.0 0.00 0.00 0.00 91 1012.1
20260506060704 58 37 0.0 0.0 0.00 0.00 0.00 92 1012.1
20260506060200 59 37 0.0 0.0 0.00 0.00 0.00 91 1012.4
20260506051133 60 17 0.0 0.0 0.00 0.00 0.00 88 1012.6
20260506050631 60 17 0.0 0.0 0.00 0.00 0.00 86 1012.5
20260506050128 61 49 0.0 0.0 0.00 0.00 0.00 85 1012.5
20260506045121 62 8 0.0 1.0 0.00 0.00 0.00 85 1012.6
20260506044619 62 288 6.0 8.0 0.00 0.00 0.00 85 1012.5
20260506044116 62 9 0.0 0.0 0.00 0.00 0.00 83 1012.5
20260506043613 61 350 0.0 0.0 0.00 0.00 0.00 80 1012.5
20260506043111 62 350 0.0 1.0 0.00 0.00 0.00 79 1012.2
20260506042610 62 11 0.0 0.0 0.00 0.00 0.00 77 1012.3
20260506042108 63 11 0.0 0.0 0.00 0.00 0.00 76 1012.1
20260506041606 63 11 0.0 0.0 0.00 0.00 0.00 74 1011.9
20260506041102 63 11 0.0 0.0 0.00 0.00 0.00 75 1011.9
20260506040600 64 11 0.0 0.0 0.00 0.00 0.00 73 1011.6
20260506040056 65 11 0.0 0.0 0.00 0.00 0.00 69 1011.6
20260506035553 65 11 0.0 0.0 0.00 0.00 0.00 68 1011.7
20260506035050 66 11 0.0 0.0 0.00 0.00 0.00 66 1011.5
20260506034547 67 24 0.0 0.0 0.00 0.00 0.00 67 1011.6
20260506034044 68 45 0.0 0.0 0.00 0.00 0.00 63 1011.5
20260506033542 69 341 1.0 2.0 0.00 0.00 0.00 58 1011.4
20260506033038 70 357 0.0 0.0 0.00 0.00 0.00 54 1011.5
20260506032536 69 56 0.0 0.0 0.00 0.00 0.00 55 1011.4
20260506032032 70 72 0.0 0.0 0.00 0.00 0.00 53 1011.2
20260506031530 70 53 0.0 0.0 0.00 0.00 0.00 58 1011.3
20260506031027 70 60 0.0 0.0 0.00 0.00 0.00 58 1011.2
20260506030525 68 56 0.0 0.0 0.00 0.00 0.00 60 1011.2
20260506030022 68 25 0.0 0.0 0.00 0.00 0.00 59 1011.3
20260506025519 66 204 2.0 5.0 0.00 0.00 0.00 62 1011.1
20260506025015 62 45 1.0 2.0 0.00 0.00 0.00 79 1011.0
20260506024512 61 14 0.0 0.0 0.00 0.00 0.00 86 1011.3
20260506024008 61 44 0.0 0.0 0.00 0.00 0.00 91 1011.2
20260506023504 60 45 0.0 0.0 0.00 0.00 0.00 95 1011.2
20260506023002 61 77 0.0 0.0 0.00 0.00 0.00 95 1011.3
20260506022459 61 77 0.0 0.0 0.00 0.00 0.00 95 1011.2
20260506021957 61 77 0.0 0.0 0.00 0.00 0.00 95 1011.5
20260506021454 61 77 0.0 0.0 0.00 0.00 0.00 95 1011.3
20260506020951 61 77 0.0 0.0 0.00 0.00 0.00 94 1011.4
20260506020449 61 77 0.0 0.0 0.00 0.00 0.00 94 1011.4
20260506015946 61 65 0.0 0.0 0.00 0.00 0.00 93 1011.5
20260506015443 61 65 0.0 0.0 0.00 0.00 0.00 94 1011.4
20260506014940 61 65 0.0 0.0 0.00 0.00 0.00 93 1011.5
20260506014437 61 65 0.0 0.0 0.00 0.00 0.00 92 1011.6
20260506013933 62 65 0.0 0.0 0.00 0.00 0.00 91 1011.4
20260506013432 62 65 0.0 0.0 0.00 0.00 0.00 90 1011.2
20260506012928 63 65 0.0 0.0 0.00 0.00 0.00 89 1011.2
20260506012424 62 65 0.0 0.0 0.00 0.00 0.00 87 1011.2
20260506011921 62 65 0.0 0.0 0.00 0.00 0.00 85 1011.1
20260506011418 62 65 0.0 0.0 0.00 0.00 0.00 86 1011.1
20260506010915 62 65 0.0 0.0 0.00 0.00 0.00 87 1010.9
20260506010414 62 65 0.0 0.0 0.00 0.00 0.00 89 1010.9
20260506005910 62 65 0.0 0.0 0.00 0.00 0.00 89 1010.9
20260506005408 62 65 0.0 0.0 0.00 0.00 0.00 88 1010.8
20260506004903 62 41 0.0 0.0 0.00 0.00 0.00 87 1010.7
20260506004401 62 107 0.0 0.0 0.00 0.00 0.00 87 1010.8